Tracking 22989 objects as of 8-May-2021
HD Live streaming from Space Station
objects crossing your sky now

THORAD AGENA D DEB

Track THORAD AGENA D DEB now!
10-day predictions


NORAD ID: 42514
Int'l Code: 1970-025RU
Perigee: 1,043.6 km
Apogee: 1,326.4 km
Inclination: 99.4 °
Period: 108.9 minutes
Semi major axis: 7555 km
RCS: Unknown
Launch date: April 8, 1970
Source: United States (US)
Launch site: AIR FORCE WESTERN TEST RANGE (AFWTR)

Note: This is SATELLITE DEBRIS
aabbcc
Your satellite tracking list
Your tracking list is empty




NASA's NSSDC Master Catalog

Two Line Element Set (TLE):
1 42514U 70025RU  21123.55283287  .00000185  00000-0  48974-3 0  9998
2 42514  99.4062  53.3740 0187135 106.7820 255.3921 13.21809405359343
Source of the keplerian elements: AFSPC